Concordia, KS

6:25 AM CDT on October 17, 2019 (GMT -0500)
Blosser Municipal

Weather History for KCNK - August, 2019

Change the Weather History Date:

Sunday, August 11, 2019

  Actual Average Record
Temperature  
Mean Temperature 80 °F 78 °F  
Max Temperature 88 °F 89 °F 109 °F (1936)
Min Temperature 72 °F 67 °F 47 °F (1902)
Degree Days  
Heating Degree Days 0 0  
Month to date heating degree days 0 0  
Since 1 June heating degree days 0 13  
Since 1 July heating degree days 0 0  
Cooling Degree Days 15 13  
Month to date cooling degree days 148 148  
Year to date cooling degree days 1053 938  
Since 1 June cooling degree days 953 849  
Growing Degree Days 30 (Base 50)    
Moisture  
Dew Point 74 °F    
Average Humidity 84    
Maximum Humidity 100    
Minimum Humidity 68    
Precipitation  
Precipitation 0.77 in 0.11 in 1.51 in (1952)
Month to date precipitation 2.40 1.18  
Year to date precipitation 24.63 19.14  
Snow  
Snow 0.00 in 0.00 in T in (1920)
Month to date snowfall 0.0 0.0  
Year to date snowfall 32.3 13.7  
Since 1 July snowfall 0.0 0.0  
Snow Depth 0.00 in    
Sea Level Pressure  
Sea Level Pressure 29.90 in    
Wind  
Wind Speed 7 mph (SE)    
Max Wind Speed 29 mph    
Max Gust Speed 45 mph    
Visibility 7 miles    
Events Rain , Thunderstorm    
T = Trace of Precipitation, MM = Missing Value Source: NWS Daily Summary

Daily Weather History Graph

Daily Weather History Graph

Search for Another Location

Airport or City:

Astronomy

Aug. 11, 2019 Rise Set
Actual Time 6:39 AM CDT 8:31 PM CDT
Civil Twilight 6:09 AM CDT 9:00 PM CDT
Nautical Twilight 5:34 AM CDT 9:36 PM CDT
Astronomical Twilight 4:56 AM CDT 10:14 PM CDT
Moon 6:11 PM CDT (8/11) 3:01 AM CDT (8/11)
Length of Visible Light 14h 50m
Length of Day
13h 52m
Waxing Gibbous, 87% of the Moon is Illuminated
Aug 11
Waxing Gibbous
Aug 15
Full
Aug 23
Last Quarter
Aug 30
New
Sep 5
First Quarter

Hourly Weather History & Observations

Time (CDT) Temp. Heat Index Dew Point Humidity Pressure Visibility Wind Dir Wind Speed Gust Speed Precip Events Conditions
12:55 AM 79.0 °F - 77.0 °F 94% 29.88 in 7.0 mi Calm Calm - N/A   Clear
1:55 AM 79.0 °F - 77.0 °F 94% 29.85 in 5.0 mi ENE 5.8 mph - N/A   Clear
2:11 AM 79.0 °F - 77.0 °F 94% 29.90 in 4.0 mi East 4.6 mph - N/A   Scattered Clouds
2:21 AM 78.1 °F - 77.0 °F 96% 29.91 in 4.0 mi SE 5.8 mph - N/A   Mostly Cloudy
2:34 AM 79.0 °F - 77.0 °F 94% 29.92 in 4.0 mi SE 6.9 mph - N/A   Overcast
2:55 AM 79.0 °F - 77.0 °F 94% 29.87 in 4.0 mi SE 4.6 mph - N/A   Mostly Cloudy
3:09 AM 79.0 °F - 77.0 °F 94% 29.94 in 4.0 mi SSE 5.8 mph - 0.00 in Rain Light Rain
3:27 AM 79.0 °F - 78.1 °F 97% 29.98 in 4.0 mi WSW 13.8 mph 25.3 mph 0.03 in Rain , Thunderstorm Thunderstorms and Rain
3:30 AM 78.1 °F - 75.9 °F 93% 29.99 in 2.5 mi West 26.5 mph 44.9 mph 0.03 in Rain , Thunderstorm Thunderstorms and Rain
3:41 AM 73.0 °F - 70.0 °F 90% 29.99 in 2.5 mi WSW 17.3 mph 35.7 mph 0.15 in Rain , Thunderstorm Heavy Thunderstorms and Rain
3:46 AM 73.0 °F - 70.0 °F 90% 29.98 in 1.5 mi West 20.7 mph 38.0 mph 0.20 in Rain , Thunderstorm Heavy Thunderstorms and Rain
3:55 AM 73.0 °F - 70.0 °F 90% 29.90 in 1.5 mi West 18.4 mph 31.1 mph 0.45 in Rain , Thunderstorm Heavy Thunderstorms and Rain
3:57 AM 73.0 °F - 70.0 °F 90% 29.95 in 1.8 mi West 18.4 mph 31.1 mph 0.02 in Rain , Thunderstorm Heavy Thunderstorms and Rain
4:01 AM 73.0 °F - 70.0 °F 90% 29.95 in 3.0 mi West 23.0 mph 34.5 mph 0.06 in Rain , Thunderstorm Thunderstorms and Rain
4:15 AM 73.0 °F - 70.0 °F 90% 29.95 in 5.0 mi WSW 20.7 mph 34.5 mph 0.10 in Rain , Thunderstorm Heavy Rain
4:50 AM 73.4 °F - 69.8 °F 88% 29.95 in 9.0 mi WSW 9.2 mph 20.7 mph 0.16 in Rain Light Rain
4:55 AM 73.0 °F - 70.0 °F 90% 29.89 in 9.0 mi West 5.8 mph - 0.16 in Rain , Thunderstorm Light Rain
5:25 AM 73.0 °F - 70.0 °F 90% 29.96 in 8.0 mi ENE 8.1 mph - 0.06 in Rain Light Rain
5:48 AM 72.0 °F - 71.1 °F 97% 29.95 in 6.0 mi ESE 8.1 mph - 0.11 in Rain , Thunderstorm Rain
5:55 AM 72.0 °F - 71.1 °F 97% 29.89 in 7.0 mi ESE 5.8 mph - 0.13 in Rain , Thunderstorm Light Rain
6:21 AM 72.0 °F - 70.0 °F 93% 29.94 in 7.0 mi SE 6.9 mph - 0.02 in Rain Rain
6:55 AM 72.0 °F - 70.0 °F 93% 29.89 in 10.0 mi SE 8.1 mph - 0.03 in   Clear
7:55 AM 72.0 °F - 70.0 °F 93% 29.90 in 10.0 mi South 10.4 mph - N/A   Clear
8:55 AM 75.0 °F - 72.0 °F 90% 29.92 in 10.0 mi SSE 5.8 mph - N/A   Clear
9:55 AM 78.1 °F - 73.0 °F 84% 29.94 in 10.0 mi East 3.5 mph - N/A   Clear
10:55 AM 80.1 °F 83.8 °F 72.0 °F 76% 29.94 in 10.0 mi Calm Calm - N/A   Partly Cloudy
11:55 AM 82.0 °F 87.9 °F 73.9 °F 76% 29.93 in 10.0 mi ENE 8.1 mph - N/A   Clear
12:55 PM 84.0 °F 91.9 °F 75.0 °F 74% 29.93 in 10.0 mi East 4.6 mph - N/A   Clear
1:55 PM 86.0 °F 95.1 °F 75.0 °F 70% 29.91 in 10.0 mi North - - N/A   Clear
2:55 PM 86.0 °F 96.0 °F 75.9 °F 72% 29.89 in 10.0 mi ESE 8.1 mph - N/A   Clear
3:55 PM 87.1 °F 96.3 °F 75.0 °F 67% 29.88 in 10.0 mi SE 9.2 mph - N/A   Clear
4:55 PM 86.0 °F 95.1 °F 75.0 °F 70% 29.86 in 10.0 mi ESE 10.4 mph - N/A   Clear
5:55 PM 87.1 °F 97.3 °F 75.9 °F 69% 29.84 in 10.0 mi ESE 8.1 mph - N/A   Clear
6:55 PM 87.1 °F 96.3 °F 75.0 °F 67% 29.82 in 10.0 mi ESE 5.8 mph - N/A   Clear
7:55 PM 84.0 °F 93.7 °F 77.0 °F 79% 29.81 in 10.0 mi East 5.8 mph - N/A   Partly Cloudy
8:55 PM 82.0 °F 91.0 °F 78.1 °F 88% 29.81 in 10.0 mi East 5.8 mph - N/A   Clear
9:55 PM 80.1 °F 85.8 °F 77.0 °F 90% 29.81 in 10.0 mi East 8.1 mph - N/A   Clear
11:55 PM 79.0 °F - 77.0 °F 94% 29.79 in 10.0 mi ESE 9.2 mph - N/A   Clear